Regional Weather Roundup
Issued by NWS

Home | Current Version | Previous Version | Text Only | Print | Product List | Glossary On
Versions: 1 2 3 4 5 6 7 8 9 10 11 12 13 14 15 16 17 18 19 20 21 22 23 24 25 26 27 28 29 30 31 32 33 34 35 36 37 38 39 40 41 42 43 44 45 46 47 48 49 50
000
ASUS43 KDTX 211510
RWRMI
MICHIGAN HOURLY REGIONAL WEATHER ROUNDUP
NATIONAL WEATHER SERVICE DETROIT/PONTIAC MI
ISSUED BY NATIONAL WEATHER SERVICE GRAND RAPIDS MI
1100 AM EDT FRI JUL 21 2017

NOTE: "FAIR" INDICATES FEW OR NO CLOUDS BELOW 12,000 FEET WITH NO
SIGNIFICANT WEATHER AND/OR OBSTRUCTION TO VISIBILITY.

MIZ047>049-052>055-059>063-066>070-074>076-081>083-211600-
SOUTHEAST LOWER MICHIGAN

CITY           SKY/WX    TMP DP  RH WIND       PRES   REMARKS
ADRIAN         CLOUDY    79  68  69 VRB3      30.01S
ALMA           SUNNY     78  62  56 CALM      30.01S
ANN ARBOR      CLOUDY    80  70  71 CALM      30.00S
BAD AXE        MOSUNNY   76  63  63 CALM      29.99S
DETROIT CITY   CLOUDY    82  66  58 N5        29.99F
DETROIT        CLOUDY    83  69  62 VRB3      30.00S
FLINT          MOSUNNY   79  64  60 VRB5      30.00F
GROSSE ILE     CLOUDY    79  68  69 E5        29.98S
HILLSDALE      PTSUNNY   72  66  83 CALM      30.02F
HOWELL         MOSUNNY   78  66  66 E5        30.01F

CITY           SKY/WX    TMP DP  RH WIND       PRES   REMARKS
JACKSON        PTSUNNY   78  66  66 E5        30.01F
LANSING        MOSUNNY   78  64  61 E3        30.01F
MASON          MOSUNNY   77  68  74 NE3       30.01F
MONROE         MOSUNNY   80  71  74 CALM      29.99S
MT. CLEMENS    PTSUNNY   79  68  68 NE3       29.98F
PONTIAC        PTSUNNY   79  64  60 E5        30.00S
PORT HOPE        N/A     74  62  66 CALM      29.96F
PORT HURON     CLOUDY    79  66  65 N3        30.00S
TRI CITIES     MOSUNNY   78  65  63 S3        29.99F
YPSILANTI      MOSUNNY   82  70  66 MISG      30.01R
$$
MIZ043>046-050>051-056>058-064>065-071>073-077>080-211600-
SOUTHWEST LOWER MICHIGAN

CITY           SKY/WX    TMP DP  RH WIND       PRES   REMARKS
BATTLE CREEK   MOSUNNY   79  68  69 E7        30.01F
BENTON HARBOR  MOSUNNY   78  70  76 E7        29.97F
BIG RAPIDS     SUNNY     82  67  60 SW3       29.99S
COLDWATER      CLOUDY    74  72  93 CALM      30.01F
HOLLAND        MOSUNNY   78  70  76 SE7       29.99F
GRAND RAPIDS   PTSUNNY   79  71  76 NE5       29.99F
KALAMAZOO      MOSUNNY   79  66  64 VRB5      30.00F
MARSHALL       MOSUNNY   77  67  71 CALM      30.01F
MOUNT PLEASANT SUNNY     80  64  57 CALM      29.98F
MUSKEGON       CLOUDY    85  67  54 VRB3      29.98S
STURGIS        PTSUNNY   75  70  85 E8        29.99F
$$
MIZ016>042-211600-
NORTHERN LOWER MICHIGAN

CITY           SKY/WX    TMP DP  RH WIND       PRES   REMARKS
ALPENA         SUNNY     80  62  54 VRB6      29.96F
BEAVER ISLAND  MOSUNNY   73  68  83 W9        29.97R
BELLAIRE       SUNNY     78  66  65 CALM      29.97R
CADILLAC       CLOUDY    80  67  65 CALM      29.99S
CHARLEVOIX     SUNNY     79  65  62 SW5       29.99S
GAYLORD        SUNNY     78  60  53 SW8       30.00R
HOUGHTON LAKE  CLOUDY    77  64  64 VRB5      30.00S
MANISTEE       CLOUDY    77  72  84 CALM      29.96F
OSCODA         CLOUDY    80  55  42 CALM      29.96F
PELLSTON       SUNNY     79  59  50 SW6       29.97S
TRAVERSE CITY  MOSUNNY   80  68  66 W5        29.95S
LUDINGTON      CLOUDY    77  71  82 CALM      29.97S
$$
MIZ007>008-015-211600-
EASTERN UPPER MICHIGAN

CITY           SKY/WX    TMP DP  RH WIND       PRES   REMARKS
KINROSS        SUNNY     74  63  68 VRB3      29.97R
MACKINAC ISLAN SUNNY     72  63  73 W3        29.97R
NEWBERRY       SUNNY     73  65  76 SW6       29.96S
S. S. MARIE    SUNNY     75  63  66 W6        29.95S
$$
MIZ004>006-011>014-085-211600-
CENTRAL UPPER MICHIGAN

CITY           SKY/WX    TMP DP  RH WIND       PRES   REMARKS
MANISTIQUE     MOSUNNY   68  65  89 S7        29.96S FOG
ESCANABA       CLOUDY    76  65  68 S6        29.96S
MENOMINEE      SUNNY     80  66  62 SW6       29.98S
SAWYER-GWINN   SUNNY     72  61  68 S5        29.99R
$$
MIZ001>003-009>011-084-211600-
WESTERN UPPER MICHIGAN

CITY           SKY/WX    TMP DP  RH WIND       PRES   REMARKS
IRON MOUNTAIN  CLOUDY    77  63  61 CALM      29.98R
HOUGHTON       CLOUDY    73  59  61 N3        29.96R
COPPER HARBOR    N/A     62  55  77 N3        29.95R
IRONWOOD       CLOUDY    74  65  73 W3        30.00R
$$

ABBREVIATIONS USED IN REMARKS
   TC - TEMPERATURE IN CELSIUS
  WCI - WIND CHILL INDEX
   HX - HEAT INDEX
  VSB - VISIBILITY





USA.gov is the U.S. government's official web portal to all federal, state and local government web resources and services.